Terug naar catalogus

STARLINK-37162

ActiefCommunicatieVLEO
NORAD 68262·PAYLOAD·🇺🇸 United States

Gelanceerd Mar 19, 2026 vanaf Vandenberg Space Force Base

Loading…

Volgende Passages (komende 24 uur)

TLE

VersSource: CelesTrak SupGP

Epoch: Sep 14, 2026, 22:37 UTC

1 68262C 26055A   26257.94284722 -.00078982  00000+0 -23338-2 0  2575
2 68262  53.1576 155.9468 0001300 102.5202 359.9547 15.34426062    13

Volg STARLINK-37162 in realtime met AllMySat

Download on the App Store